Regional Weather Roundup
Issued by NWS

Home | Current Version | Previous Version | Graphics & Text | Print | Product List | Glossary On
Versions: 1 2 3 4 5 6 7 8 9 10 11 12 13 14 15 16 17 18 19 20 21 22 23 24 25 26 27 28 29 30 31 32 33 34 35 36 37 38 39 40 41 42 43 44 45 46 47 48 49 50
301
ASUS43 KLOT 260207
RWRIL

ILLINOIS REGIONAL WEATHER ROUNDUP
NATIONAL WEATHER SERVICE CHICAGO/ROMEOVILLE IL
900 PM CDT TUE APR 25 2017

NOTE: "FAIR" INDICATES FEW OR NO CLOUDS BELOW 12,000 FEET WITH NO
SIGNIFICANT WEATHER AND/OR OBSTRUCTIONS TO VISIBILITY.

* THESE STATIONS ARE NOT UNDER NWS QUALITY CONTROL. THEY ALSO MAY NOT
  REPORT WEATHER SUCH AS PRECIPITATION OR FOG.

ILZ001-002-007-009-015-016-024-260300-
NORTHWEST ILLINOIS

CITY           SKY/WX    TMP DP  RH WIND       PRES   REMARKS
MOLINE         CLOUDY    70  48  45 SE6       29.46R
STERLING*      CLOUDY    72  49  44 SE7       29.51R
SAVANNA*       CLOUDY    69  47  46 SE7       29.49S
$$

ILZ003-004-008-010-011-017-018-260300-
NORTH CENTRAL ILLINOIS

CITY           SKY/WX    TMP DP  RH WIND       PRES   REMARKS
ROCKFORD       CLOUDY    71  49  45 SE10      29.54R
FREEPORT*      CLOUDY    67  47  48 SE7       29.53S
ROCHELLE*      MOCLDY    68  50  52 S9        29.54R
DE KALB*       CLOUDY    70  51  51 SE12      29.56R
PERU*          PTCLDY    72  49  45 S15       29.54R
$$

ILZ005-006-012>014-019>023-260300-
NORTHEAST ILLINOIS

CITY           SKY/WX    TMP DP  RH WIND       PRES   REMARKS
CHICAGO-OHARE  CLOUDY    73  51  46 SE10      29.55R
CHICAGO-MIDWAY CLOUDY    74  52  46 SE8       29.56R
AURORA         CLOUDY    72  51  47 SE12      29.56R
LANSING*       CLOUDY    71  56  57 SE9       29.56S
JOLIET*        CLOUDY    73  53  48 S6        29.57R
WAUKEGAN       CLOUDY    57  49  74 E5        29.57R
DUPAGE AIRPORT MOCLDY    72  52  49 S8        29.55R
KANKAKEE*      MOCLDY    71  52  50 S9        29.57R
WHEELING       CLOUDY    70  52  52 E6        29.57R
MORRIS*        CLOUDY    72  51  48 S9        29.55R
ROMEOVILLE*    CLOUDY    69  56  62 S8        29.57R
NORTHERLY ISL    N/A     61  51  70 SE7         N/A
$$

LMZ740>746-260300-
SOUTHERN LAKE MICHIGAN

STATION/POSITION SKY/WX   TEMP    WIND        PRES    VSBY  WAVE
                          AIR SEA DIR/SP/G                  HT/PER
                          (F)     (DEG/KT/KT) (MB)    (MI)  (FT/S)
SOUTHERN BUOY              49 42   70/ 10/ 12 1002.4          1
HARRISON CRIB              60     130/ 14/ 15   N/A
BURNHAM HARBOR             61     160/  3/  9   N/A
CALUMET HARBOR             73     130/  6/ 12 1000.6F
BURNS HARBOR               73     140/  9/ 15 1002.0R
MICHIGAN CITY              71     130/  7/  9   N/A
ST. JOSEPH                 66 50  140/  4/  6 1002.6          0
$$

ILZ025>027-034>036-040-047-049-050-058-095>099-260300-
WEST-CENTRAL ILLINOIS

CITY           SKY/WX    TMP DP  RH WIND       PRES   REMARKS
QUINCY         PTCLDY    73  49  42 SE8       29.45R
GALESBURG*     CLOUDY    71  49  44 SE5       29.47S
MACOMB*        CLOUDY    73  46  38 SE13      29.49S
JACKSONVILLE*  CLOUDY    73  48  42 SE14G23   29.50R
PITTSFIELD*    MOCLDY    74  51  43 S10       29.48S
$$

ILZ028>032-037-038-041>044-048-051>054-059>061-260300-
CENTRAL ILLINOIS

CITY           SKY/WX    TMP DP  RH WIND       PRES   REMARKS
PONTIAC        CLOUDY    73  51  46 S14G21    29.57R
BLOOMINGTON    CLOUDY    69  54  58 S16       29.56R
DECATUR        CLOUDY    70  56  61 S12       29.56R
PEORIA         CLOUDY    73  48  41 S13       29.52R
LACON*         CLOUDY    71  51  48 S9        29.51S
LINCOLN*       MOCLDY    72  55  56 S7        29.54R
SPRINGFIELD    CLOUDY    74  49  41 S16       29.53R
TAYLORVILLE    PTCLDY    69  53  55 S9        29.55R
$$

ILZ033-039-045-046-055>057-062-063-260300-
EAST-CENTRAL ILLINOIS

CITY           SKY/WX    TMP DP  RH WIND       PRES   REMARKS
CHAMPAIGN      CLOUDY    71  53  52 S10       29.58R
RANTOUL*       CLOUDY    73  55  51 S15       29.58R
MATTOON        CLOUDY    70  57  63 S10       29.56R
PARIS*         CLOUDY    71  56  59 SE14      29.58R
$$

ILZ079-100>102-260300-
SOUTHWEST ILLINOIS

CITY           SKY/WX    TMP DP  RH WIND       PRES   REMARKS
ALTON          CLEAR     72  50  46 S12       29.54R
BELLEVILLE     CLOUDY    69  52  54 E7        29.53R
CAHOKIA*       PTCLDY    71  49  45 S3        29.53R
SPARTA*        CLOUDY    70  52  52 S5        29.55S
$$

ILZ064>066-069>071-074>076-080>082-084>086-088>090-092>094-260300-
SOUTH-CENTRAL ILLINOIS

CITY           SKY/WX    TMP DP  RH WIND       PRES   REMARKS
CARBONDALE     MOCLDY    69  54  58 S12       29.56R
CAIRO*         CLEAR     71  55  55 SE8       29.58R
EFFINGHAM*     CLOUDY    71  58  62 SE10      29.58R
MARION         PTCLDY    72  54  53 S9        29.58R
MT. VERNON     CLOUDY    71  55  56 S9        29.56R
CENTRALIA*     CLOUDY    68  56  66 S6        29.56R
SALEM*         MOCLDY    73  53  50 S8        29.57R
METROPOLIS*    CLEAR     72  56  58 SE7       29.58F
$$

ILZ067-068-072-073-078-083-087-091-260300-
SOUTHEAST ILLINOIS

CITY           SKY/WX    TMP DP  RH WIND       PRES   REMARKS
LAWRENCEVILLE  PTCLDY    72  56  57 S15       29.59S
FLORA*         CLOUDY    72  57  60 S14       29.56R
FAIRFIELD*     CLOUDY    71  57  62 SE7       29.56R
HARRISBURG*    PTCLDY    70  56  63 S14       29.57S
ROBINSON*      MOCLDY    70  56  61 SE10      29.59S
CARMI*         CLOUDY    68  59  72 SE10      29.58S
$$

ABBREVIATIONS USED IN REMARKS
   TC - TEMPERATURE IN CELSIUS
  WCI - WIND CHILL INDEX
   HX - HEAT INDEX
  VSB - VISIBILITY
$$





USA.gov is the U.S. government's official web portal to all federal, state and local government web resources and services.